map of WMH home
WMH - Airport
Location
City:  Mountain Home, Arkansas, United States
Name:Baxter County Airport
ICAO:KBPK
IATA:WMH
FAA LID:BPK

Details
Type:Airport (Airfield)
Use:Public/Civil
Latitude:3622'08"N (36.368942)
Longitude:9228'14"W (-92.470527)
Datum:WGS 1984
Elevation:927 ft (283 m)
Variation:0.38E (WMM2015 magnetic declination)
-0.10 annual change
Runways:1
Longest:5001 × 75 ft (1524 × 23 m), paved

Time
Time Zone:UTC-6 (DST-5)
Local Time:

Weather
METAR:KBPK 260753Z AUTO 00000KT 10SM BKN022 OVC028 09/07 A2989 RMK AO2 SLP119 T00940067 TSNO $
TAF:KBPK 260527Z 2606/2706 26006KT P6SM OVC020
FM261400 25005KT P6SM OVC025
FM261600 20006KT P6SM SCT050 SCT250

Related Locations
Nearby:
Farthest:MQZ: 10879 mi / 17508 km
Margaret River [Margaret River Airport], WA, AU

Find:

   beyond  
but within

Other Information
Maps:
NOTAMs:
Links:
Sources:

  
flag of United States
flag of Arkansas
  

Sectional Chart

Flight Planning
at skyvector.com

Satellite Image

Google Maps Satellite view

 

Copyright © 2004-2017 Karl L. Swartz. All rights reserved.
The Great Circle Mapper name and logo are trademarks of the Great Circle Mapper.
All other trademarks mentioned herein belong to their respective owners.
Please see credits for attibutions and further copyright information.

  Follow gcmap on Facebook Follow gcmap on Twitter Follow gcmap on Google+ GCmap on LinkedIn

hCard Microformat

Geo Microformat